• Em Portugal
  • Lista de países
  • Para 7 dias
  • Temperatura da água
  • Mapas de satélite
  • Mapa do tempo
  • Widgets de tempo
  • user-avatar
    Iniciar Sessão

    Previsão horária em Aksaraj

    Hoje, 20 Fevereiro, Terça-feira

    Tempo Temperatura Precipitação Vento Pressão Humidade
    00:00 +7°C° 0 mm 1 m/s 674 mmHg 53%
    01:00 +6°C° 0 mm 2 m/s 674 mmHg 56%
    02:00 +5°C° 0 mm 0 m/s 674 mmHg 57%
    03:00 +6°C° 0 mm 1 m/s 674 mmHg 58%
    04:00 +6°C° 0 mm 1 m/s 674 mmHg 60%
    05:00 +6°C° 0 mm 1 m/s 674 mmHg 61%
    06:00 +6°C° 0 mm 2 m/s 674 mmHg 61%
    07:00 +7°C° 0 mm 2 m/s 674 mmHg 60%
    08:00 +8°C° 0 mm 2 m/s 675 mmHg 57%
    09:00 +9°C° 0 mm 2 m/s 675 mmHg 53%
    10:00 +10°C° 0 mm 3 m/s 675 mmHg 48%
    11:00 +11°C° 0 mm 3 m/s 675 mmHg 43%
    12:00 +11°C° 0 mm 3 m/s 674 mmHg 42%
    13:00 +12°C° 0 mm 3 m/s 674 mmHg 42%
    14:00 +13°C° 0 mm 2 m/s 674 mmHg 40%
    15:00 +12°C° 0,2 mm 2 m/s 674 mmHg 45%
    16:00 +12°C° 0,2 mm 2 m/s 673 mmHg 50%
    17:00 +10°C° 0,2 mm 2 m/s 673 mmHg 55%
    18:00 +9°C° 0,2 mm 2 m/s 673 mmHg 59%
    19:00 +10°C° 0,2 mm 1 m/s 673 mmHg 63%
    20:00 +9°C° 0,2 mm 1 m/s 673 mmHg 67%
    21:00 +9°C° 0,1 mm 1 m/s 673 mmHg 69%
    22:00 +9°C° 0,1 mm 1 m/s 673 mmHg 71%
    23:00 +8°C° 0,1 mm 1 m/s 673 mmHg 73%

    Amanhã, 21 Fevereiro, Quarta-feira

    Tempo Temperatura Precipitação Vento Pressão Humidade
    00:00 +8°C° 0,1 mm 1 m/s 673 mmHg 74%
    01:00 +8°C° 0,1 mm 1 m/s 673 mmHg 75%
    02:00 +8°C° 0,1 mm 1 m/s 673 mmHg 76%
    03:00 +8°C° 0,1 mm 1 m/s 673 mmHg 77%
    04:00 +8°C° 0,1 mm 1 m/s 673 mmHg 78%
    05:00 +7°C° 0,1 mm 1 m/s 673 mmHg 79%
    06:00 +7°C° 0,1 mm 2 m/s 673 mmHg 77%
    07:00 +7°C° 0,1 mm 2 m/s 673 mmHg 75%
    08:00 +7°C° 0,1 mm 2 m/s 673 mmHg 73%
    09:00 +8°C° 0 mm 2 m/s 673 mmHg 66%
    10:00 +10°C° 0 mm 2 m/s 673 mmHg 59%
    11:00 +11°C° 0 mm 3 m/s 673 mmHg 53%
    12:00 +11°C° 0 mm 3 m/s 673 mmHg 51%
    13:00 +12°C° 0 mm 3 m/s 673 mmHg 49%
    14:00 +12°C° 0 mm 3 m/s 673 mmHg 47%
    15:00 +12°C° 0,1 mm 3 m/s 672 mmHg 49%
    16:00 +12°C° 0,1 mm 2 m/s 672 mmHg 50%
    17:00 +12°C° 0,1 mm 2 m/s 672 mmHg 51%
    18:00 +10°C° 0 mm 2 m/s 672 mmHg 55%
    19:00 +10°C° 0 mm 2 m/s 672 mmHg 58%
    20:00 +9°C° 0 mm 2 m/s 673 mmHg 61%
    21:00 +8°C° 0 mm 2 m/s 673 mmHg 63%
    22:00 +8°C° 0 mm 2 m/s 673 mmHg 66%
    23:00 +7°C° 0 mm 2 m/s 673 mmHg 68%

    Depois de amanhã, 22 Fevereiro, Quinta-feira

    Tempo Temperatura Precipitação Vento Pressão Humidade
    00:00 +7°C° 0 mm 2 m/s 673 mmHg 69%
    01:00 +6°C° 0 mm 2 m/s 673 mmHg 71%
    02:00 +6°C° 0 mm 2 m/s 673 mmHg 72%
    03:00 +6°C° 0 mm 2 m/s 673 mmHg 72%
    04:00 +5°C° 0 mm 2 m/s 673 mmHg 73%
    05:00 +5°C° 0 mm 2 m/s 673 mmHg 73%
    06:00 +6°C° 0 mm 2 m/s 673 mmHg 70%
    07:00 +6°C° 0 mm 2 m/s 674 mmHg 67%
    08:00 +7°C° 0 mm 2 m/s 674 mmHg 64%
    09:00 +8°C° 0 mm 2 m/s 674 mmHg 58%
    10:00 +10°C° 0 mm 2 m/s 674 mmHg 51%
    11:00 +12°C° 0 mm 2 m/s 674 mmHg 44%
    12:00 +13°C° 0 mm 2 m/s 674 mmHg 42%
    13:00 +13°C° 0 mm 2 m/s 673 mmHg 40%
    14:00 +14°C° 0 mm 2 m/s 673 mmHg 37%
    15:00 +14°C° 0 mm 2 m/s 673 mmHg 39%
    16:00 +13°C° 0 mm 2 m/s 673 mmHg 40%
    17:00 +13°C° 0 mm 1 m/s 673 mmHg 41%
    18:00 +12°C° 0 mm 1 m/s 673 mmHg 45%
    19:00 +11°C° 0 mm 1 m/s 673 mmHg 48%
    20:00 +10°C° 0 mm 1 m/s 673 mmHg 51%
    21:00 +10°C° 0 mm 1 m/s 673 mmHg 53%
    22:00 +8°C° 0 mm 2 m/s 673 mmHg 55%
    23:00 +8°C° 0 mm 2 m/s 673 mmHg 56%

    23 Fevereiro, Sexta-feira

    Tempo Temperatura Precipitação Vento Pressão Humidade
    00:00 +8°C° 0 mm 2 m/s 673 mmHg 58%
    01:00 +7°C° 0 mm 2 m/s 673 mmHg 60%
    02:00 +7°C° 0 mm 2 m/s 673 mmHg 63%
    03:00 +7°C° 0 mm 2 m/s 673 mmHg 65%
    04:00 +6°C° 0 mm 2 m/s 673 mmHg 67%
    05:00 +6°C° 0 mm 2 m/s 672 mmHg 69%
    06:00 +7°C° 0 mm 2 m/s 673 mmHg 67%
    07:00 +7°C° 0 mm 2 m/s 673 mmHg 65%
    08:00 +8°C° 0 mm 2 m/s 674 mmHg 64%
    09:00 +10°C° 0 mm 1 m/s 674 mmHg 57%
    10:00 +11°C° 0 mm 1 m/s 673 mmHg 51%
    11:00 +12°C° 0 mm 1 m/s 673 mmHg 45%
    12:00 +13°C° 0 mm 1 m/s 673 mmHg 43%
    13:00 +13°C° 0 mm 1 m/s 673 mmHg 41%
    14:00 +14°C° 0 mm 1 m/s 672 mmHg 39%
    15:00 +13°C° 0 mm 1 m/s 672 mmHg 40%
    16:00 +13°C° 0 mm 1 m/s 672 mmHg 42%
    17:00 +13°C° 0 mm 1 m/s 672 mmHg 43%
    18:00 +12°C° 0 mm 1 m/s 672 mmHg 46%
    19:00 +11°C° 0 mm 1 m/s 672 mmHg 49%
    20:00 +10°C° 0 mm 1 m/s 672 mmHg 52%
    21:00 +10°C° 0 mm 1 m/s 672 mmHg 54%
    22:00 +9°C° 0 mm 1 m/s 673 mmHg 55%
    23:00 +9°C° 0 mm 1 m/s 673 mmHg 56%

    24 Fevereiro, Sábado

    Tempo Temperatura Precipitação Vento Pressão Humidade
    00:00 +8°C° 0 mm 1 m/s 672 mmHg 58%
    01:00 +8°C° 0 mm 1 m/s 672 mmHg 59%
    02:00 +7°C° 0 mm 1 m/s 672 mmHg 61%
    03:00 +7°C° 0 mm 1 m/s 672 mmHg 63%
    04:00 +7°C° 0 mm 1 m/s 672 mmHg 64%
    05:00 +6°C° 0 mm 1 m/s 672 mmHg 66%
    06:00 +7°C° 0 mm 1 m/s 673 mmHg 63%
    07:00 +8°C° 0 mm 1 m/s 673 mmHg 61%
    08:00 +9°C° 0 mm 1 m/s 674 mmHg 58%
    09:00 +10°C° 0 mm 1 m/s 674 mmHg 54%
    10:00 +10°C° 0 mm 2 m/s 674 mmHg 50%
    11:00 +12°C° 0 mm 2 m/s 673 mmHg 46%
    12:00 +13°C° 0 mm 2 m/s 673 mmHg 44%
    13:00 +13°C° 0 mm 2 m/s 673 mmHg 42%
    14:00 +13°C° 0 mm 3 m/s 672 mmHg 40%
    15:00 +13°C° 0 mm 3 m/s 672 mmHg 41%
    16:00 +12°C° 0 mm 3 m/s 672 mmHg 42%
    17:00 +12°C° 0 mm 3 m/s 672 mmHg 43%
    18:00 +11°C° 0 mm 3 m/s 672 mmHg 46%
    19:00 +10°C° 0 mm 3 m/s 672 mmHg 48%
    20:00 +10°C° 0 mm 3 m/s 672 mmHg 51%
    21:00 +9°C° 0 mm 3 m/s 671 mmHg 51%
    22:00 +9°C° 0 mm 3 m/s 671 mmHg 51%
    23:00 +8°C° 0 mm 3 m/s 671 mmHg 52%

    25 Fevereiro, Domingo

    Tempo Temperatura Precipitação Vento Pressão Humidade
    00:00 +8°C° 0,1 mm 3 m/s 671 mmHg 55%
    01:00 +8°C° 0,1 mm 3 m/s 671 mmHg 57%
    02:00 +7°C° 0,1 mm 3 m/s 671 mmHg 60%
    03:00 +6°C° 0 mm 4 m/s 671 mmHg 63%
    04:00 +6°C° 0 mm 4 m/s 671 mmHg 65%
    05:00 +6°C° 0 mm 4 m/s 671 mmHg 67%
    06:00 +6°C° 0,2 mm 4 m/s 671 mmHg 65%
    07:00 +6°C° 0,2 mm 5 m/s 671 mmHg 63%
    08:00 +7°C° 0,2 mm 5 m/s 671 mmHg 61%
    09:00 +7°C° 0,5 mm 5 m/s 671 mmHg 61%
    10:00 +7°C° 0,5 mm 5 m/s 671 mmHg 61%
    11:00 +8°C° 0,5 mm 5 m/s 671 mmHg 61%
    12:00 +8°C° 0,4 mm 5 m/s 670 mmHg 60%
    13:00 +10°C° 0,4 mm 4 m/s 670 mmHg 58%
    14:00 +10°C° 0,4 mm 4 m/s 670 mmHg 57%
    15:00 +10°C° 0,5 mm 4 m/s 670 mmHg 58%
    16:00 +10°C° 0,5 mm 3 m/s 670 mmHg 59%
    17:00 +9°C° 0,5 mm 3 m/s 669 mmHg 61%
    18:00 +9°C° 0,4 mm 3 m/s 670 mmHg 64%
    19:00 +8°C° 0,4 mm 2 m/s 670 mmHg 67%
    20:00 +8°C° 0,4 mm 2 m/s 670 mmHg 70%
    21:00 +7°C° 0,1 mm 2 m/s 670 mmHg 72%
    22:00 +7°C° 0,1 mm 2 m/s 670 mmHg 74%
    23:00 +7°C° 0,1 mm 2 m/s 670 mmHg 75%
    Mostrar mais